Key Field Meridian US
ICAO: KMEI
IATA: MEI
Category: Medium
Scheduled Services: Yes

Elevation: 297 ft
TransAlt. 18000 ft.

Airport Communications:
MERIDIAN APP/DEP:120.5
ATIS:126.475
CTAF:119.8
GCA:125.125
GND:121.9
ANG OPS COMD POST:29.23
GREENWOOD RDO:122.2
TWR:119.8
UNICOM:122.95

KMEI Zoom In..

If you have problems with the map follow the link
https://www.worldairports.se/pages/airport.php?
ICAO=KMEI

Runways:

(A) RW 01 length 10003 ft width 150 ft
ILS 110.10 / hdg 11

(B) RW 04 length 4599 ft width 150 ft
---- / hdg 46

(C) RW 19 length 10003 ft width 150 ft
ILS 111.35 / hdg 191

(D) RW 22 length 4599 ft width 150 ft
---- / hdg 226

Location; KMEI
Day. 19 / Time. 00.58 Zulu
* Altimeter: 30.31
* Temperature: 16° c. 60.8°f.
* Wind from: 000° Speed 00 kn.
Dewpoint: 12° c.
Visibility: 10 Statute Miles.
Clouds: Clear (automated report).

KMEI 190058Z 00000KT 10SM CLR 16/12 A3031 RMK AO2 SLP260 T01560122


Wind - Calm.

 
 
jpsmedia.com for Web Design worldairports.se 2018   terms of use